PGT3600 LTDB-LTAI

Flight info

Callsign PGT3600
Flight time 0h 45m
Altitude 38000
Route MANAZ1J/21L MANAZ UW74 MUT UR55 TEWHE
Aircraft A20N/M-SDE2E3FGHIJ1RWXY/LB1

Departure

Time 2026-05-08 18:20
Airport Çukurova International Airport (LTDB)

Arrival

Time 2026-05-08 19:05
Airport Antalya International Airport (LTAI)
Time Latitude Longitude Altitude Speed Heading
2026-05-08 17:45 36.90266 35.07093 33 ft 0 kts 301°
2026-05-08 18:03 36.90259 35.07108 33 ft 2 kts 302°
2026-05-08 18:03 36.90251 35.07124 33 ft 2 kts 301°
2026-05-08 18:04 36.90243 35.07140 33 ft 2 kts 301°
2026-05-08 18:04 36.90236 35.07155 33 ft 2 kts 327°
2026-05-08 18:04 36.90221 35.07159 33 ft 2 kts 11°
2026-05-08 18:04 36.90213 35.07156 33 ft 1 kts 35°
2026-05-08 18:05 36.90208 35.07152 33 ft 0 kts 31°
2026-05-08 18:13 36.90210 35.07153 33 ft 1 kts 32°
2026-05-08 18:13 36.90240 35.07176 33 ft 7 kts 31°
2026-05-08 18:13 36.90276 35.07224 33 ft 8 kts 78°
2026-05-08 18:13 36.90261 35.07285 33 ft 7 kts 123°
2026-05-08 18:14 36.90229 35.07348 33 ft 8 kts 121°
2026-05-08 18:14 36.90187 35.07435 33 ft 16 kts 120°
2026-05-08 18:14 36.90151 35.07585 33 ft 21 kts 62°
2026-05-08 18:14 36.90280 35.07699 33 ft 23 kts 31°
2026-05-08 18:15 36.90420 35.07806 33 ft 23 kts 31°
2026-05-08 18:15 36.90556 35.07909 34 ft 22 kts 32°
2026-05-08 18:15 36.90576 35.08020 34 ft 14 kts 121°
2026-05-08 18:15 36.90566 35.08042 34 ft 0 kts 122°
2026-05-08 18:18 36.90565 35.08043 34 ft 0 kts 122°
2026-05-08 18:19 36.90540 35.08093 34 ft 13 kts 123°
2026-05-08 18:19 36.90455 35.08111 33 ft 7 kts 210°
2026-05-08 18:19 36.90404 35.08071 33 ft 15 kts 212°
2026-05-08 18:19 36.90182 35.07901 33 ft 72 kts 211°
2026-05-08 18:20 36.89542 35.07415 31 ft 140 kts 211°
2026-05-08 18:20 36.88620 35.06702 398 ft 162 kts 212°
2026-05-08 18:20 36.87662 35.05966 1109 ft 164 kts 212°
2026-05-08 18:20 36.86708 35.05253 1879 ft 163 kts 212°
2026-05-08 18:21 36.85709 35.04512 2419 ft 174 kts 212°
2026-05-08 18:21 36.84616 35.03685 2902 ft 191 kts 212°
2026-05-08 18:21 36.83438 35.02795 3399 ft 208 kts 212°
2026-05-08 18:21 36.82179 35.01761 3839 ft 230 kts 221°
2026-05-08 18:22 36.81229 35.00090 4408 ft 245 kts 253°
2026-05-08 18:22 36.81111 34.97975 5064 ft 254 kts 283°
2026-05-08 18:22 36.81518 34.95787 5703 ft 269 kts 286°
2026-05-08 18:22 36.81979 34.93461 6471 ft 280 kts 286°
2026-05-08 18:23 36.82433 34.91106 7415 ft 283 kts 285°
2026-05-08 18:23 36.82885 34.88717 8386 ft 286 kts 285°
2026-05-08 18:23 36.83327 34.86337 9318 ft 288 kts 285°
2026-05-08 18:23 36.83776 34.83886 10242 ft 291 kts 285°
2026-05-08 18:24 36.84229 34.81420 10933 ft 302 kts 285°
2026-05-08 18:24 36.84707 34.78809 11434 ft 317 kts 285°
2026-05-08 18:24 36.85198 34.76105 12209 ft 323 kts 284°
2026-05-08 18:24 36.85688 34.73400 13050 ft 325 kts 285°
2026-05-08 18:25 36.86188 34.70637 13888 ft 327 kts 284°
2026-05-08 18:25 36.86689 34.67859 14657 ft 332 kts 284°
2026-05-08 18:25 36.87200 34.65026 15324 ft 340 kts 284°
2026-05-08 18:25 36.87714 34.62168 16100 ft 343 kts 284°
2026-05-08 18:26 36.88235 34.59264 16865 ft 346 kts 284°
2026-05-08 18:26 36.88761 34.56328 17597 ft 349 kts 284°
2026-05-08 18:26 36.89286 34.53401 18316 ft 352 kts 284°
2026-05-08 18:26 36.89822 34.50399 19033 ft 355 kts 284°
2026-05-08 18:27 36.90362 34.47369 19733 ft 358 kts 284°
2026-05-08 18:27 36.90722 34.45348 20203 ft 360 kts 284°
2026-05-08 18:27 36.91230 34.41216 21121 ft 365 kts 277°
2026-05-08 18:27 36.91318 34.38057 21770 ft 369 kts 271°
2026-05-08 18:28 36.91215 34.34855 22383 ft 373 kts 269°
2026-05-08 18:28 36.91074 34.31627 23003 ft 376 kts 270°
2026-05-08 18:28 36.90926 34.28330 23624 ft 379 kts 269°
2026-05-08 18:28 36.90779 34.25034 24233 ft 382 kts 270°
2026-05-08 18:29 36.90633 34.21749 24827 ft 384 kts 270°
2026-05-08 18:29 36.90487 34.18407 25421 ft 385 kts 270°
2026-05-08 18:29 36.90341 34.15095 25992 ft 387 kts 271°
2026-05-08 18:29 36.90192 34.11746 26561 ft 388 kts 271°
2026-05-08 18:30 36.90044 34.08377 27079 ft 390 kts 271°
2026-05-08 18:30 36.89895 34.05022 27605 ft 391 kts 271°
2026-05-08 18:30 36.89744 34.01643 28110 ft 392 kts 271°
2026-05-08 18:30 36.89592 33.98260 28600 ft 393 kts 272°
2026-05-08 18:31 36.89438 33.94827 29092 ft 394 kts 271°
2026-05-08 18:31 36.89283 33.91414 29527 ft 396 kts 272°
2026-05-08 18:31 36.89128 33.87996 29956 ft 398 kts 272°
2026-05-08 18:31 36.88971 33.84546 30353 ft 400 kts 272°
2026-05-08 18:32 36.88813 33.81083 30739 ft 402 kts 271°
2026-05-08 18:32 36.88653 33.77633 31229 ft 401 kts 271°
2026-05-08 18:32 36.88489 33.74136 31819 ft 398 kts 271°
2026-05-08 18:32 36.88327 33.70723 32378 ft 395 kts 271°
2026-05-08 18:33 36.88163 33.67310 32895 ft 392 kts 271°
2026-05-08 18:33 36.88002 33.63958 33388 ft 390 kts 271°
2026-05-08 18:33 36.87840 33.60583 33875 ft 387 kts 272°
2026-05-08 18:33 36.87683 33.57260 34351 ft 384 kts 271°
2026-05-08 18:34 36.87523 33.53948 34799 ft 382 kts 271°
2026-05-08 18:34 36.87365 33.50668 35219 ft 380 kts 271°
2026-05-08 18:34 36.87205 33.47389 35368 ft 379 kts 271°
2026-05-08 18:34 36.87044 33.44097 35678 ft 378 kts 271°
2026-05-08 18:35 36.86883 33.40872 36219 ft 378 kts 271°
2026-05-08 18:35 36.86720 33.37603 36230 ft 377 kts 271°
2026-05-08 18:35 36.86406 33.31075 36229 ft 376 kts 272°
2026-05-08 18:36 36.86372 33.27823 35905 ft 374 kts 274°
2026-05-08 18:36 36.86453 33.24605 35764 ft 370 kts 275°
2026-05-08 18:36 36.86551 33.21428 35520 ft 366 kts 276°
2026-05-08 18:36 36.86655 33.18265 35280 ft 366 kts 276°
2026-05-08 18:37 36.86758 33.15102 35033 ft 367 kts 276°
2026-05-08 18:37 36.86863 33.11883 34785 ft 367 kts 276°
2026-05-08 18:37 36.86965 33.08724 34545 ft 368 kts 276°
2026-05-08 18:37 36.87067 33.05550 34297 ft 368 kts 276°
2026-05-08 18:38 36.87168 33.02337 34052 ft 370 kts 275°
2026-05-08 18:38 36.87267 32.99162 33789 ft 370 kts 276°
2026-05-08 18:38 36.87367 32.95941 33523 ft 372 kts 276°
2026-05-08 18:38 36.87469 32.92719 33254 ft 373 kts 276°
2026-05-08 18:39 36.87568 32.89480 32989 ft 373 kts 276°
2026-05-08 18:39 36.87668 32.86279 32730 ft 375 kts 276°
2026-05-08 18:39 36.87767 32.82995 32458 ft 375 kts 276°
2026-05-08 18:39 36.87864 32.79750 32190 ft 376 kts 275°
2026-05-08 18:40 36.87961 32.76502 31927 ft 376 kts 275°
2026-05-08 18:40 36.88056 32.73273 31666 ft 377 kts 276°
2026-05-08 18:40 36.88152 32.70000 31401 ft 378 kts 276°
2026-05-08 18:40 36.88247 32.66698 31136 ft 379 kts 276°
2026-05-08 18:41 36.88340 32.63444 30875 ft 381 kts 275°
2026-05-08 18:41 36.88432 32.60155 30613 ft 381 kts 275°
2026-05-08 18:41 36.88527 32.56832 30351 ft 384 kts 275°
2026-05-08 18:41 36.88620 32.53523 30093 ft 384 kts 275°
2026-05-08 18:42 36.88713 32.50152 29831 ft 386 kts 275°
2026-05-08 18:42 36.88804 32.46838 29572 ft 387 kts 275°
2026-05-08 18:42 36.88894 32.43483 29314 ft 389 kts 275°
2026-05-08 18:42 36.88982 32.40117 29056 ft 389 kts 275°
2026-05-08 18:43 36.89072 32.36732 28793 ft 391 kts 275°
2026-05-08 18:43 36.89161 32.33326 28536 ft 391 kts 275°
2026-05-08 18:43 36.89250 32.29926 28279 ft 390 kts 274°
2026-05-08 18:43 36.89336 32.26585 28025 ft 389 kts 275°
2026-05-08 18:44 36.89423 32.23204 27764 ft 389 kts 274°
2026-05-08 18:44 36.89509 32.19826 27505 ft 388 kts 274°
2026-05-08 18:44 36.89594 32.16486 27247 ft 388 kts 275°
2026-05-08 18:44 36.89677 32.13161 26991 ft 387 kts 275°
2026-05-08 18:45 36.89762 32.09810 26732 ft 385 kts 275°
2026-05-08 18:45 36.89843 32.06476 26475 ft 384 kts 275°
2026-05-08 18:45 36.89922 32.03155 26219 ft 383 kts 274°
2026-05-08 18:45 36.89820 31.99842 25942 ft 386 kts 263°
2026-05-08 18:46 36.88936 31.96649 25681 ft 393 kts 246°
2026-05-08 18:46 36.87314 31.93879 25255 ft 400 kts 230°
2026-05-08 18:46 36.85210 31.91662 24631 ft 403 kts 224°
2026-05-08 18:46 36.82966 31.89489 23951 ft 403 kts 223°
2026-05-08 18:47 36.80786 31.87382 23367 ft 401 kts 223°
2026-05-08 18:47 36.78591 31.85250 22740 ft 400 kts 223°
2026-05-08 18:47 36.76404 31.83109 21976 ft 403 kts 223°
2026-05-08 18:47 36.74164 31.80922 21020 ft 410 kts 222°
2026-05-08 18:48 36.71909 31.78740 20032 ft 417 kts 221°
2026-05-08 18:48 36.69614 31.76526 18904 ft 425 kts 221°
2026-05-08 18:48 36.67284 31.74280 17814 ft 431 kts 220°
2026-05-08 18:48 36.64893 31.71979 16748 ft 436 kts 220°
2026-05-08 18:49 36.62520 31.69698 15752 ft 436 kts 220°
2026-05-08 18:49 36.60177 31.67448 14885 ft 420 kts 220°
2026-05-08 18:49 36.57901 31.65265 13905 ft 400 kts 220°
2026-05-08 18:49 36.55797 31.63178 12913 ft 382 kts 225°
2026-05-08 18:50 36.54287 31.60608 11832 ft 366 kts 248°
2026-05-08 18:50 36.53666 31.57658 10702 ft 353 kts 268°
2026-05-08 18:50 36.53761 31.54691 9656 ft 345 kts 277°
2026-05-08 18:50 36.53918 31.52741 8924 ft 341 kts 278°
2026-05-08 18:51 36.54234 31.48888 7462 ft 335 kts 277°
2026-05-08 18:51 36.54445 31.46087 6449 ft 328 kts 277°
2026-05-08 18:51 36.54644 31.43305 5704 ft 324 kts 277°
2026-05-08 18:51 36.54842 31.40539 5322 ft 313 kts 278°
2026-05-08 18:52 36.55253 31.37963 5186 ft 297 kts 285°
2026-05-08 18:52 36.55616 31.35482 5071 ft 284 kts 279°
2026-05-08 18:52 36.55855 31.33089 4935 ft 274 kts 278°
2026-05-08 18:52 36.56079 31.30772 4643 ft 269 kts 278°
2026-05-08 18:53 36.56310 31.28492 4292 ft 267 kts 279°
2026-05-08 18:53 36.56554 31.26206 3953 ft 265 kts 279°
2026-05-08 18:53 36.56802 31.23950 3599 ft 264 kts 279°
2026-05-08 18:53 36.57055 31.21682 3235 ft 262 kts 279°
2026-05-08 18:54 36.57304 31.19469 2989 ft 260 kts 279°
2026-05-08 18:54 36.57557 31.17223 2973 ft 262 kts 279°
2026-05-08 18:54 36.57812 31.14969 2968 ft 264 kts 279°
2026-05-08 18:54 36.58068 31.12708 2962 ft 264 kts 278°
2026-05-08 18:55 36.58581 31.08195 2957 ft 265 kts 277°
2026-05-08 18:55 36.58841 31.05901 2955 ft 265 kts 277°
2026-05-08 18:55 36.59092 31.03640 2955 ft 264 kts 278°
2026-05-08 18:56 36.59336 31.01409 2946 ft 255 kts 278°
2026-05-08 18:56 36.59571 30.99290 2939 ft 239 kts 279°
2026-05-08 18:56 36.59791 30.97310 2940 ft 224 kts 279°
2026-05-08 18:56 36.59998 30.95470 2937 ft 209 kts 279°
2026-05-08 18:57 36.60204 30.93655 2951 ft 216 kts 279°
2026-05-08 18:57 36.60344 30.92423 2953 ft 219 kts 279°
2026-05-08 18:57 36.60625 30.89908 2954 ft 221 kts 279°
2026-05-08 18:57 36.60836 30.88001 2952 ft 220 kts 279°
2026-05-08 18:58 36.61041 30.86159 2942 ft 210 kts 279°
2026-05-08 18:58 36.61251 30.84373 2949 ft 208 kts 284°
2026-05-08 18:58 36.61923 30.82862 2939 ft 202 kts 322°
2026-05-08 18:58 36.63140 30.81966 2956 ft 204 kts 333°
2026-05-08 18:59 36.64397 30.81123 2958 ft 206 kts 332°
2026-05-08 18:59 36.65655 30.80252 2956 ft 206 kts 331°
2026-05-08 18:59 36.66871 30.79395 2948 ft 195 kts 331°
2026-05-08 18:59 36.68052 30.78556 2957 ft 195 kts 331°
2026-05-08 19:00 36.68841 30.77994 2960 ft 195 kts 331°
2026-05-08 19:00 36.70427 30.76921 2938 ft 190 kts 342°
2026-05-08 19:00 36.71702 30.76715 2941 ft 184 kts
2026-05-08 19:00 36.72968 30.76885 2963 ft 189 kts
2026-05-08 19:01 36.74314 30.77098 2930 ft 195 kts
2026-05-08 19:01 36.75624 30.77295 2739 ft 187 kts
2026-05-08 19:01 36.76944 30.77481 2314 ft 191 kts
2026-05-08 19:01 36.78214 30.77654 2165 ft 174 kts
2026-05-08 19:02 36.79382 30.77811 1928 ft 161 kts
2026-05-08 19:02 36.80453 30.77957 1716 ft 148 kts
2026-05-08 19:02 36.81422 30.78089 1530 ft 136 kts
2026-05-08 19:02 36.82357 30.78217 1361 ft 133 kts
2026-05-08 19:03 36.83279 30.78343 1198 ft 132 kts
2026-05-08 19:03 36.84200 30.78468 1028 ft 132 kts
2026-05-08 19:03 36.85121 30.78593 855 ft 132 kts
2026-05-08 19:03 36.86042 30.78721 679 ft 131 kts
2026-05-08 19:04 36.86961 30.78848 502 ft 131 kts
2026-05-08 19:04 36.87862 30.78965 329 ft 130 kts
2026-05-08 19:04 36.88787 30.79095 180 ft 128 kts
2026-05-08 19:04 36.89581 30.79205 177 ft 100 kts
2026-05-08 19:05 36.90199 30.79291 177 ft 76 kts
2026-05-08 19:05 36.90649 30.79368 177 ft 50 kts 29°
2026-05-08 19:05 36.90813 30.79540 177 ft 10 kts 43°
2026-05-08 19:05 36.90847 30.79577 177 ft 4 kts 33°
2026-05-08 19:06 36.90881 30.79597 177 ft 4 kts 22°
2026-05-08 19:06 36.90897 30.79616 177 ft 4 kts 63°
2026-05-08 19:06 36.90907 30.79653 177 ft 4 kts 101°
2026-05-08 19:06 36.90894 30.79777 177 ft 17 kts 97°
2026-05-08 19:07 36.90884 30.79917 177 ft 13 kts 99°
2026-05-08 19:07 36.90870 30.80010 177 ft 2 kts 96°
2026-05-08 19:07 36.90868 30.80025 177 ft 1 kts 96°
2026-05-08 19:07 36.90868 30.80031 177 ft 0 kts 96°
2026-05-08 19:08 36.90868 30.80033 177 ft 0 kts 96°